Location: Cheyres
(46.8153°N, 6.7877°E)
Time: 14:23:07
(UTC+00:00)

AIST 2D - Visible Passes

Search period start: 25 June 2022 00:00
Search period end: 05 July 2022 00:00
Orbit: 433 x 449 km, 97.1° (Epoch: 24 June)

Date Brightness Start Highest point End Pass type
(mag) Time Alt. Az. Time Alt. Az. Time Alt. Az.
25 Jun ? 21:25:01 10° N 21:28:19 67° WNW 21:30:55 15° SSW visible
26 Jun ? 20:47:30 10° NNE 20:50:37 36° E 20:52:55 16° SSE visible
26 Jun ? 22:21:01 10° NNW 22:22:56 15° WNW 22:24:52 10° W visible
27 Jun ? 20:11:03 10° ENE 20:12:42 13° E 20:14:22 10° ESE visible
27 Jun ? 21:42:23 10° N 21:45:31 38° WNW 21:48:21 12° SW visible
28 Jun ? 21:04:33 10° NNE 21:07:52 64° E 21:10:17 17° S visible
29 Jun ? 20:27:25 10° NE 20:29:59 21° E 20:32:13 12° SE visible
29 Jun ? 21:59:50 10° NNW 22:02:35 24° WNW 22:05:19 10° SW visible
30 Jun ? 21:21:39 10° N 21:24:58 73° WNW 21:27:34 16° SSW visible
01 Jul ? 20:44:05 10° NNE 20:47:09 33° E 20:49:26 15° SSE visible
01 Jul ? 22:17:25 10° NNW 22:19:31 16° WNW 22:21:36 10° WSW visible
02 Jul ? 20:07:43 10° ENE 20:09:07 12° E 20:10:31 10° ESE visible
02 Jul ? 21:38:47 10° N 21:41:57 42° WNW 21:44:44 13° SW visible
03 Jul ? 21:00:53 10° NNE 21:04:11 57° E 21:06:33 17° S visible
03 Jul ? 22:35:39 10° NW 22:36:19 10° WNW 22:36:59 10° WNW visible
04 Jul ? 20:23:43 10° NE 20:26:12 19° E 20:28:21 12° SE visible
04 Jul ? 21:55:58 10° NNW 21:58:49 26° WNW 22:01:39 10° SW visible
